[[{"header":{"parameterUnit":"m.s-1","parameterCategory":2,"la1":30.2991,"la2":30.254,"lo1":-89.0895,"lo2":-89.0444,"dy":0.0017,"dx":0.0017,"nx":28,"ny":28,"refTime":"2025-08-28T21:00:00:Z","depth":"0","parameterNumber":2,"parameterNumberName":"U-component_of_CURRENTS"},"data":[0,0,0,0,0,0,0,0,0,0,0,0,0,0,0,0,0,0,0,0,0,0,0,0,0,0,0,0,0,0,0,0,0,0,0,0,0,0,0,0,0,0,0,0,0,0,0,0,0,0,0,0,0,0,0,0,0,0,-0.2357,-0.2357,0,-0.2355,-0.2355,-0.2355,-0.2296,-0.2295,-0.2294,-0.2293,-0.2219,-0.2219,-0.2218,0,0,0,0,0,0,0,0,0,0,0,0,0,-0.2287,-0.2288,-0.2357,-0.2357,-0.2358,-0.2355,-0.2355,-0.2354,-0.2296,-0.2295,-0.2293,-0.2292,-0.222,-0.2219,-0.2218,0,0,0,0,0,0,0,0,0,0,0,0,0,-0.2301,-0.2289,-0.2357,-0.233,-0.2328,-0.2355,-0.2355,-0.2354,-0.2297,-0.2295,-0.2293,-0.2291,-0.222,-0.2219,-0.2218,-0.2247,0,0,-0.2214,-0.2213,0,0,0,0,0,0,0,0,-0.2301,-0.2304,-0.2334,-0.2332,-0.233,-0.2327,-0.2303,-0.2316,-0.2297,-0.2306,-0.2293,-0.229,-0.2252,-0.2248,-0.2249,-0.2244,-0.2241,-0.2214,-0.2213,-0.2213,-0.2212,0,0,0,0,0,0,0,-0.23,-0.2303,-0.2353,-0.2335,-0.2332,-0.2311,-0.2311,-0.2305,-0.2286,-0.2305,-0.2301,-0.2306,-0.225,-0.225,-0.2246,-0.224,-0.2214,-0.2213,-0.2212,-0.2212,-0.2247,-0.2249,0,0,0,0,0,0,-0.231,-0.2303,-0.2353,-0.2353,-0.2314,-0.2314,-0.2314,-0.2327,-0.2287,-0.2281,-0.2308,-0.2304,-0.2253,-0.2248,-0.2243,-0.2267,-0.2213,-0.2211,-0.2211,-0.2245,-0.2247,-0.2249,0,0,0,0,0,0,-0.2309,-0.2315,-0.2353,-0.2329,-0.2333,-0.2318,-0.2333,-0.2328,-0.2327,-0.2291,-0.2282,-0.2312,-0.2251,-0.2245,-0.2248,-0.2263,-0.2211,-0.221,-0.2243,-0.2246,-0.2248,-0.2319,0,0,0,0,0,0,-0.2307,-0.2315,-0.2325,-0.2331,-0.2335,-0.2377,-0.2335,-0.233,-0.2335,-0.2329,-0.2292,-0.2283,-0.2249,-0.225,-0.2247,-0.2261,-0.2209,-0.2241,-0.2245,-0.2248,-0.2315,-0.2324,-0.2331,0,0,0,0,0,-0.2304,-0.2338,-0.2326,-0.2332,-0.2352,-0.2378,-0.2379,-0.2358,-0.2337,-0.2347,-0.2324,-0.2284,-0.2267,-0.2251,-0.2246,-0.226,-0.224,-0.2244,-0.2247,-0.2311,-0.2322,-0.2331,0,0,0,0,0,0,-0.2315,-0.2336,-0.2322,-0.236,-0.2368,-0.2369,-0.2382,-0.2369,-0.2361,-0.2355,-0.2309,-0.23,-0.2305,-0.2284,-0.2268,-0.2282,-0.2246,-0.2249,-0.2296,-0.2306,-0.2314,-0.2318,-0.2208,0,0,0,0,0,-0.2324,-0.2351,-0.2361,-0.2389,-0.2398,-0.239,-0.2397,-0.239,-0.2387,-0.238,-0.2355,-0.2334,-0.2321,-0.2314,-0.23,-0.2316,-0.2279,-0.2323,-0.2331,-0.2338,-0.2341,-0.2327,-0.2334,-0.2261,-0.2261,-0.2261,0,0,-0.2334,-0.2351,-0.2364,-0.2393,-0.2396,-0.2424,-0.239,-0.2416,-0.2434,-0.2376,-0.239,-0.2363,-0.2332,-0.2342,-0.2343,-0.2324,-0.2335,-0.2343,-0.2349,-0.2347,-0.2332,-0.2339,-0.2345,-0.2264,-0.2264,-0.2263,0,0,-0.2377,-0.2386,-0.242,-0.2437,-0.2458,-0.2458,-0.247,-0.2479,-0.2474,-0.2492,-0.245,-0.2439,-0.2425,-0.2404,-0.2391,-0.2444,-0.2379,-0.2439,-0.2483,-0.2471,-0.2476,-0.2481,-0.2417,-0.2415,-0.2444,-0.2444,-0.2444,0,-0.2386,-0.2432,-0.2434,-0.2473,-0.249,-0.2478,-0.2515,-0.2522,-0.2528,-0.2528,-0.2505,-0.248,-0.2454,-0.2455,-0.2469,-0.2461,-0.2427,-0.2444,-0.248,-0.2484,-0.2487,-0.2421,-0.2418,-0.2448,-0.2447,-0.2447,-0.2447,0,-0.2448,-0.2486,-0.2514,-0.2552,-0.257,-0.2609,-0.2616,-0.263,-0.2619,-0.2612,-0.261,-0.2576,-0.2553,-0.2548,-0.2523,-0.2535,-0.2492,-0.249,-0.2451,-0.2499,-0.2426,-0.2421,-0.2453,-0.2452,-0.2451,-0.245,0,0,-0.2451,-0.2542,-0.2544,-0.2574,-0.2617,-0.2636,-0.2676,-0.2697,-0.271,-0.2702,-0.2705,-0.2687,-0.2651,-0.2636,-0.26,-0.2592,-0.2576,-0.2556,-0.2554,-0.2485,-0.251,-0.2432,-0.2419,-0.2582,-0.2583,-0.2583,-0.244,0,-0.2491,-0.2585,-0.2612,-0.2677,-0.272,-0.2728,-0.2761,-0.2775,-0.2773,-0.2775,-0.2738,-0.2725,-0.269,-0.2671,-0.2662,-0.2594,-0.2572,-0.2612,-0.2481,-0.2476,-0.2396,-0.2415,-0.2326,-0.2188,-0.2435,-0.2434,-0.2433,0,-0.2513,-0.2585,-0.2668,-0.274,-0.2756,-0.2785,-0.2815,-0.2843,-0.2849,-0.2844,-0.2827,-0.2791,-0.2757,-0.2731,-0.2639,-0.2664,-0.2598,-0.2547,-0.254,-0.2442,-0.2392,-0.2186,-0.217,-0.2156,-0.2426,-0.2426,-0.2427,0,-0.249,-0.2598,-0.2666,-0.2696,-0.2786,-0.2806,-0.2832,-0.2854,-0.2848,-0.2874,-0.2845,-0.2833,-0.2767,-0.2729,-0.2605,-0.2629,-0.2489,-0.2507,-0.2368,-0.2359,-0.2244,-0.2225,-0.2193,-0.2459,-0.2459,-0.2459,-0.246,0,-0.2508,-0.2549,-0.2661,-0.2701,-0.2743,-0.2806,-0.2822,-0.2852,-0.2862,-0.2809,-0.2858,-0.2783,-0.2765,-0.2671,-0.261,-0.2446,-0.2483,-0.2367,-0.2328,-0.2263,-0.2248,-0.2199,-0.2218,-0.2454,-0.2455,-0.2456,-0.2457,0,-0.2444,-0.2537,-0.26,-0.2712,-0.273,-0.2745,-0.277,-0.275,-0.2809,-0.2735,-0.2728,-0.271,-0.2604,-0.256,-0.2458,-0.2397,-0.2244,-0.2232,-0.213,-0.2083,-0.1975,-0.2001,-0.1899,-0.1846,-0.2074,-0.2072,-0.2069,0,-0.2412,-0.2451,-0.2559,-0.2549,-0.2587,-0.2621,-0.2597,-0.2687,-0.2641,-0.2637,-0.2551,-0.2503,-0.2398,-0.225,-0.2182,-0.2078,-0.2092,-0.1927,-0.1981,-0.195,-0.1951,-0.1976,-0.1942,-0.1834,-0.183,-0.1827,-0.1824,0,-0.2317,-0.2356,-0.2399,-0.2399,-0.2385,-0.2384,-0.2368,-0.2348,-0.2393,-0.2371,-0.2282,-0.2239,-0.2129,-0.2004,-0.1917,-0.1846,-0.1893,-0.1857,-0.1863,-0.1792,-0.1779,-0.1714,-0.1921,-0.1795,-0.1798,-0.18,-0.1802,-0.1803,-0.218,-0.2172,-0.2204,-0.2175,-0.2158,-0.2099,-0.2049,-0.2043,-0.2004,-0.1936,-0.1985,-0.1908,-0.1868,-0.1755,-0.1685,-0.1584,-0.1655,-0.1552,-0.1587,-0.1616,-0.1577,-0.1701,-0.1523,-0.1524,-0.1525,-0.1526,-0.1527,0,-0.1983,-0.198,-0.1948,-0.1913,-0.181,-0.1888,-0.1825,-0.1758,-0.1668,-0.1679,-0.1637,-0.1614,-0.151,-0.1502,-0.1422,-0.1349,-0.1336,-0.1321,-0.1356,-0.1336,-0.1459,-0.1463,-0.1219,-0.1219,-0.1219,-0.1219,-0.122,-0.122,-0.1872,-0.1781,-0.1778,-0.1566,-0.1529,-0.1385,-0.1338,-0.1293,-0.1288,-0.1237,-0.1257,-0.1312,-0.1335,-0.141,-0.1312,-0.1244,-0.1234,-0.1176,-0.1214,-0.1337,-0.1363,-0.1388,-0.1398,-0.1144,-0.1144,-0.1044,-0.1043,-0.1043]},{"header":{"parameterUnit":"m.s-1","parameterCategory":2,"la1":30.2991,"la2":30.254,"lo1":-89.0895,"lo2":-89.0444,"dy":0.0017,"dx":0.0017,"nx":28,"ny":28,"refTime":"2025-08-28T21:00:00:Z","depth":"0","parameterNumber":3,"parameterNumberName":"V-component_of_CURRENTS"},"data":[0,0,0,0,0,0,0,0,0,0,0,0,0,0,0,0,0,0,0,0,0,0,0,0,0,0,0,0,0,0,0,0,0,0,0,0,0,0,0,0,0,0,0,0,0,0,0,0,0,0,0,0,0,0,0,0,0,0,0.0263,0.0263,0,0.0284,0.0284,0.0284,0.029,0.029,0.029,0.029,0.0334,0.0335,0.0336,0,0,0,0,0,0,0,0,0,0,0,0,0,0.0257,0.0257,0.0263,0.0263,0.0264,0.0284,0.0284,0.0284,0.029,0.029,0.029,0.029,0.0334,0.0335,0.0336,0,0,0,0,0,0,0,0,0,0,0,0,0,0.0267,0.0257,0.0263,0.027,0.027,0.0283,0.0284,0.0284,0.029,0.029,0.029,0.029,0.0333,0.0335,0.0337,0.0349,0,0,0.0342,0.0343,0,0,0,0,0,0,0,0,0.0266,0.0267,0.0268,0.0269,0.027,0.0285,0.0298,0.0307,0.029,0.0282,0.029,0.029,0.032,0.0323,0.0326,0.0352,0.0353,0.0342,0.0343,0.0344,0.0345,0,0,0,0,0,0,0,0.0265,0.0266,0.0271,0.0269,0.027,0.0281,0.0282,0.03,0.0301,0.0283,0.0284,0.0287,0.0321,0.0324,0.0327,0.0354,0.0342,0.0344,0.0345,0.0346,0.0425,0.0426,0,0,0,0,0,0,0.0262,0.0265,0.027,0.0271,0.0268,0.0281,0.0282,0.028,0.0301,0.0304,0.0287,0.0287,0.0321,0.0325,0.0329,0.0353,0.0344,0.0346,0.0347,0.0424,0.0425,0.0426,0,0,0,0,0,0,0.0262,0.0262,0.0269,0.027,0.0271,0.0281,0.0279,0.028,0.0283,0.0303,0.0307,0.0288,0.0321,0.0326,0.035,0.0355,0.0347,0.0348,0.0423,0.0424,0.0426,0.0398,0,0,0,0,0,0,0.0262,0.0262,0.0256,0.0269,0.0271,0.0271,0.0279,0.0281,0.0285,0.0286,0.0306,0.0309,0.0321,0.0347,0.0351,0.0357,0.035,0.0421,0.0423,0.0425,0.0397,0.0398,0.0399,0,0,0,0,0,0.0261,0.0248,0.0255,0.0256,0.0263,0.027,0.0272,0.0279,0.0285,0.0282,0.0305,0.0309,0.0363,0.0349,0.0354,0.036,0.042,0.0423,0.0425,0.0397,0.0398,0.0399,0,0,0,0,0,0,0.0235,0.0248,0.0256,0.0245,0.0257,0.0271,0.0267,0.0279,0.0293,0.0294,0.0317,0.0323,0.0345,0.0363,0.0347,0.0393,0.0394,0.0398,0.0371,0.0372,0.0373,0.0355,0.0351,0,0,0,0,0,0.0229,0.0226,0.0242,0.0234,0.0238,0.0255,0.0258,0.0266,0.0282,0.0288,0.0305,0.0332,0.036,0.0372,0.0394,0.0416,0.0437,0.0428,0.0428,0.0428,0.042,0.0477,0.0482,0.0434,0.0434,0.0433,0,0,0.0214,0.0223,0.0219,0.0229,0.0237,0.0233,0.0256,0.0258,0.026,0.0292,0.0299,0.0331,0.0367,0.039,0.0403,0.0404,0.0452,0.0431,0.0431,0.0422,0.048,0.0484,0.0488,0.0435,0.0435,0.0435,0,0,0.0181,0.0194,0.0178,0.0186,0.0199,0.0215,0.0216,0.0234,0.0247,0.0264,0.0294,0.0331,0.036,0.0394,0.0414,0.0436,0.0452,0.0444,0.0431,0.0487,0.0491,0.0495,0.0515,0.0521,0.0446,0.0446,0.0446,0,0.0161,0.0142,0.0174,0.0161,0.016,0.0205,0.0186,0.021,0.0235,0.025,0.0261,0.0332,0.0363,0.0408,0.0416,0.0435,0.0457,0.042,0.0486,0.0491,0.0495,0.0515,0.0522,0.0445,0.0445,0.0445,0.0445,0,0.0115,0.01,0.0091,0.0093,0.0104,0.0093,0.0133,0.0153,0.0181,0.0208,0.0256,0.0312,0.0352,0.0379,0.0401,0.0452,0.0453,0.0477,0.0478,0.0498,0.0518,0.0525,0.0443,0.0444,0.0444,0.0444,0,0,0.0058,0.0056,0.0049,0.0032,0.0062,0.0059,0.0086,0.0113,0.0131,0.018,0.0207,0.0276,0.0314,0.0341,0.039,0.0446,0.0496,0.0469,0.0472,0.0475,0.0594,0.0545,0.0548,0.0533,0.0534,0.0535,0.059,0,0.0003,-0.0048,-0.0019,-0.0059,-0.0086,-0.0026,-0.0005,0.0038,0.0089,0.0134,0.0219,0.0261,0.0299,0.0326,0.0388,0.0475,0.0516,0.0477,0.0585,0.0587,0.0532,0.0556,0.0596,0.0644,0.0597,0.0598,0.0599,0,-0.0067,-0.0089,-0.0145,-0.0147,-0.0148,-0.0148,-0.0105,-0.0082,0.0013,0.0058,0.013,0.0199,0.0289,0.0324,0.0463,0.0435,0.05,0.0568,0.0572,0.054,0.0553,0.0621,0.0659,0.0794,0.0611,0.061,0.0609,0,-0.0155,-0.0184,-0.0234,-0.0239,-0.022,-0.0216,-0.0194,-0.0113,-0.0088,0.0011,0.005,0.0165,0.0225,0.0337,0.0452,0.0469,0.0596,0.0642,0.0654,0.065,0.071,0.0709,0.0881,0.0729,0.0729,0.0729,0.0729,0,-0.0245,-0.0285,-0.0282,-0.0314,-0.035,-0.03,-0.0302,-0.0252,-0.0167,-0.0141,-0.0005,0.0039,0.0234,0.0328,0.0437,0.0546,0.0579,0.0646,0.0667,0.0699,0.0696,0.0835,0.0882,0.0731,0.073,0.073,0.073,0,-0.0345,-0.0344,-0.0404,-0.0401,-0.04,-0.0429,-0.039,-0.0376,-0.0285,-0.024,-0.021,-0.0047,0.0077,0.0239,0.0421,0.0513,0.0702,0.0654,0.0652,0.067,0.0817,0.0858,0.0991,0.1055,0.0707,0.0706,0.0706,0,-0.0403,-0.0447,-0.0486,-0.0512,-0.0514,-0.0533,-0.0529,-0.0453,-0.0429,-0.0309,-0.0292,-0.0154,-0.0059,0.0176,0.0373,0.0551,0.066,0.0676,0.0724,0.0823,0.0888,0.0914,0.0962,0.0799,0.0799,0.0799,0.0799,0,-0.0503,-0.0515,-0.0556,-0.0615,-0.0636,-0.0661,-0.065,-0.0647,-0.0548,-0.0494,-0.0414,-0.0327,-0.0085,0.0153,0.038,0.0495,0.0773,0.0681,0.0824,0.0994,0.0999,0.1071,0.0735,0.08,0.08,0.08,0.08,0.08,-0.0562,-0.0616,-0.0657,-0.0707,-0.0737,-0.0762,-0.077,-0.0743,-0.0714,-0.0595,-0.0519,-0.0332,0.0022,0.0366,0.0477,0.0788,0.077,0.0926,0.0973,0.0993,0.1047,0.0668,0.0724,0.0723,0.0723,0.0722,0.0722,0,-0.062,-0.0668,-0.0733,-0.0783,-0.0818,-0.0814,-0.0819,-0.0795,-0.0766,-0.0636,-0.0529,-0.0101,0.0227,0.0553,0.0962,0.1116,0.1175,0.1195,0.1305,0.1346,0.107,0.1067,0.1151,0.1151,0.1151,0.1151,0.1151,0.115,-0.0646,-0.0719,-0.0751,-0.0823,-0.0853,-0.0874,-0.0873,-0.0837,-0.0738,-0.0504,-0.024,-0.0027,0.0454,0.1068,0.1434,0.146,0.1619,0.1571,0.1638,0.1517,0.1498,0.148,0.1493,0.1665,0.1665,0.1938,0.1941,0.1943]}],[{"header":{"parameterUnit":"m.s-1","parameterCategory":2,"la1":30.2991,"la2":30.254,"lo1":-89.0895,"lo2":-89.0444,"dy":0.0017,"dx":0.0017,"nx":28,"ny":28,"refTime":"2025-08-28T21:00:00:Z","depth":"2","parameterNumber":2,"parameterNumberName":"U-component_of_CURRENTS"},"data":[0,0,0,0,0,0,0,0,0,0,0,0,0,0,0,0,0,0,0,0,0,0,0,0,0,0,0,0,0,0,0,0,0,0,0,0,0,0,0,0,0,0,0,0,0,0,0,0,0,0,0,0,0,0,0,0,0,0,-0.2325,-0.2326,0,-0.2386,-0.2387,-0.2387,-0.2329,-0.2327,-0.2325,-0.2323,-0.2268,-0.2268,-0.2268,0,0,0,0,0,0,0,0,0,0,0,0,0,-0.2192,-0.2194,-0.2325,-0.2326,-0.2327,-0.2386,-0.2387,-0.2387,-0.2329,-0.2327,-0.2324,-0.2322,-0.2268,-0.2268,-0.2268,0,0,0,0,0,0,0,0,0,0,0,0,0,-0.2247,-0.2195,-0.2325,-0.2309,-0.2308,-0.2386,-0.2387,-0.2387,-0.2329,-0.2327,-0.2324,-0.2321,-0.2267,-0.2268,-0.2268,-0.233,0,0,-0.227,-0.227,0,0,0,0,0,0,0,0,-0.2244,-0.2251,-0.231,-0.231,-0.2309,-0.235,-0.232,-0.2364,-0.233,-0.2317,-0.2323,-0.2319,-0.229,-0.2288,-0.2302,-0.2327,-0.2325,-0.227,-0.227,-0.2271,-0.2271,0,0,0,0,0,0,0,-0.224,-0.2249,-0.2345,-0.2311,-0.2311,-0.231,-0.2314,-0.2328,-0.2313,-0.2318,-0.2315,-0.2329,-0.2287,-0.2302,-0.23,-0.2324,-0.227,-0.2271,-0.2271,-0.2271,-0.2326,-0.2328,0,0,0,0,0,0,-0.2243,-0.2246,-0.2343,-0.2347,-0.2273,-0.2315,-0.2319,-0.2337,-0.2316,-0.2312,-0.2332,-0.2326,-0.2302,-0.2299,-0.2297,-0.232,-0.2271,-0.2271,-0.2271,-0.2325,-0.2327,-0.2328,0,0,0,0,0,0,-0.224,-0.2251,-0.2341,-0.23,-0.2312,-0.2321,-0.2341,-0.234,-0.2337,-0.2328,-0.232,-0.2328,-0.23,-0.2297,-0.2298,-0.2318,-0.2271,-0.2272,-0.2324,-0.2326,-0.2327,-0.2395,0,0,0,0,0,0,-0.2236,-0.225,-0.2257,-0.2301,-0.2315,-0.2385,-0.2344,-0.2343,-0.2353,-0.2346,-0.2324,-0.2316,-0.2297,-0.2297,-0.2298,-0.2318,-0.2272,-0.2322,-0.2325,-0.2327,-0.2392,-0.2399,-0.2406,0,0,0,0,0,-0.2231,-0.2265,-0.2257,-0.2268,-0.2326,-0.2387,-0.2393,-0.2386,-0.2356,-0.2368,-0.2344,-0.2316,-0.2311,-0.23,-0.23,-0.232,-0.2321,-0.2324,-0.2327,-0.2389,-0.2398,-0.2406,0,0,0,0,0,0,-0.222,-0.2264,-0.2255,-0.2301,-0.2336,-0.2378,-0.2396,-0.239,-0.2386,-0.2368,-0.2339,-0.2332,-0.2341,-0.2326,-0.2314,-0.2342,-0.231,-0.2313,-0.2356,-0.2365,-0.2372,-0.2375,-0.2273,0,0,0,0,0,-0.2222,-0.2244,-0.2293,-0.2325,-0.2347,-0.2368,-0.2387,-0.2388,-0.2398,-0.2393,-0.2375,-0.2358,-0.2362,-0.2355,-0.2356,-0.238,-0.2343,-0.2391,-0.2398,-0.2404,-0.2407,-0.2393,-0.2399,-0.2337,-0.2337,-0.2336,0,0,-0.2225,-0.2253,-0.2264,-0.2322,-0.2346,-0.2397,-0.2371,-0.2411,-0.2437,-0.239,-0.2403,-0.2386,-0.2374,-0.2394,-0.2396,-0.2378,-0.2395,-0.2407,-0.2412,-0.2412,-0.2396,-0.2402,-0.2407,-0.2338,-0.2338,-0.2338,0,0,-0.2261,-0.2272,-0.2307,-0.2345,-0.2393,-0.2414,-0.2424,-0.2462,-0.2458,-0.2484,-0.2451,-0.2445,-0.245,-0.2445,-0.2444,-0.2494,-0.2436,-0.2489,-0.2526,-0.2513,-0.2518,-0.2522,-0.2451,-0.2448,-0.249,-0.249,-0.249,0,-0.2242,-0.2306,-0.2329,-0.2384,-0.2417,-0.2422,-0.2477,-0.2495,-0.2519,-0.2524,-0.249,-0.2493,-0.2478,-0.2504,-0.2515,-0.2511,-0.247,-0.2496,-0.2522,-0.2525,-0.2528,-0.2454,-0.245,-0.2494,-0.2493,-0.2493,-0.2492,0,-0.2315,-0.2361,-0.2393,-0.2451,-0.25,-0.2541,-0.2585,-0.2602,-0.2589,-0.2598,-0.2607,-0.2584,-0.2578,-0.2578,-0.2562,-0.2581,-0.2532,-0.2534,-0.2499,-0.2538,-0.2458,-0.2452,-0.2499,-0.2497,-0.2496,-0.2495,0,0,-0.2218,-0.2402,-0.2386,-0.2427,-0.253,-0.2551,-0.2633,-0.2681,-0.2699,-0.2697,-0.2708,-0.2714,-0.2679,-0.2675,-0.2647,-0.2634,-0.2608,-0.2592,-0.259,-0.2518,-0.253,-0.2427,-0.241,-0.2614,-0.2614,-0.2614,-0.2453,0,-0.223,-0.2319,-0.2436,-0.2504,-0.2547,-0.2627,-0.2699,-0.2746,-0.2768,-0.2777,-0.2752,-0.2749,-0.2723,-0.2703,-0.2695,-0.2627,-0.2602,-0.2648,-0.2506,-0.25,-0.2403,-0.2404,-0.2273,-0.2114,-0.2447,-0.2446,-0.2446,0,-0.2222,-0.2274,-0.2372,-0.2506,-0.2534,-0.2599,-0.2671,-0.2741,-0.2805,-0.2829,-0.2839,-0.2813,-0.2784,-0.2755,-0.2665,-0.269,-0.2621,-0.2566,-0.2559,-0.2439,-0.2389,-0.2136,-0.2091,-0.2436,-0.2437,-0.2437,-0.2438,0,-0.2064,-0.2204,-0.2267,-0.2313,-0.2493,-0.2548,-0.2614,-0.2727,-0.2756,-0.2837,-0.2823,-0.2841,-0.2757,-0.2734,-0.2605,-0.2639,-0.2475,-0.251,-0.2351,-0.234,-0.2188,-0.2164,-0.2462,-0.2462,-0.2462,-0.2463,-0.2463,0,-0.2013,-0.2039,-0.2187,-0.2216,-0.227,-0.2428,-0.2503,-0.2599,-0.2687,-0.2685,-0.2797,-0.2738,-0.2744,-0.2643,-0.26,-0.2418,-0.2464,-0.2343,-0.2301,-0.2203,-0.2183,-0.2443,-0.2443,-0.2457,-0.2458,-0.2459,-0.246,0,-0.1892,-0.1989,-0.206,-0.2199,-0.223,-0.2257,-0.2399,-0.243,-0.2549,-0.2539,-0.2542,-0.2589,-0.2497,-0.2473,-0.2381,-0.2332,-0.2237,-0.2167,-0.202,-0.1965,-0.2116,-0.2122,-0.2,-0.1995,-0.1991,-0.1988,-0.1985,0,-0.1871,-0.1894,-0.1999,-0.2,-0.2079,-0.2135,-0.2181,-0.2338,-0.2352,-0.2405,-0.2342,-0.2296,-0.224,-0.2089,-0.2043,-0.1961,-0.2053,-0.1769,-0.1844,-0.2102,-0.2073,-0.2085,-0.2096,-0.1645,-0.164,-0.1635,-0.1632,0,-0.1806,-0.1842,-0.1877,-0.1876,-0.1904,-0.1953,-0.1995,-0.1986,-0.2125,-0.212,-0.2067,-0.204,-0.1933,-0.1807,-0.172,-0.1665,-0.1799,-0.1676,-0.1966,-0.1798,-0.1759,-0.1734,-0.1758,-0.1593,-0.1597,-0.1599,-0.1602,-0.1603,-0.173,-0.1716,-0.1731,-0.173,-0.1747,-0.1742,-0.1728,-0.1761,-0.1762,-0.1733,-0.177,-0.1702,-0.1691,-0.1518,-0.1418,-0.1364,-0.1507,-0.1466,-0.1483,-0.1504,-0.1508,-0.1466,-0.124,-0.1242,-0.1244,-0.1245,-0.1246,0,-0.1612,-0.1586,-0.1567,-0.1552,-0.1512,-0.1584,-0.1578,-0.1543,-0.149,-0.1492,-0.1461,-0.1313,-0.123,-0.1227,-0.1093,-0.1065,-0.1099,-0.1016,-0.1077,-0.1115,-0.1149,-0.114,-0.0772,-0.077,-0.0769,-0.0768,0,0,-0.1527,-0.1454,-0.1442,-0.1319,-0.1308,-0.123,-0.1209,-0.1178,-0.1162,-0.1102,-0.1073,-0.1163,-0.1191,-0.0984,-0.0935,-0.0829,-0.0964,-0.0785,-0.1167,-0.1276,-0.1309,-0.1408,-0.1435,0,0,0,0,0]},{"header":{"parameterUnit":"m.s-1","parameterCategory":2,"la1":30.2991,"la2":30.254,"lo1":-89.0895,"lo2":-89.0444,"dy":0.0017,"dx":0.0017,"nx":28,"ny":28,"refTime":"2025-08-28T21:00:00:Z","depth":"2","parameterNumber":3,"parameterNumberName":"V-component_of_CURRENTS"},"data":[0,0,0,0,0,0,0,0,0,0,0,0,0,0,0,0,0,0,0,0,0,0,0,0,0,0,0,0,0,0,0,0,0,0,0,0,0,0,0,0,0,0,0,0,0,0,0,0,0,0,0,0,0,0,0,0,0,0,-0.0181,-0.0181,0,-0.0158,-0.0158,-0.0157,-0.0144,-0.0144,-0.0144,-0.0144,-0.0083,-0.0081,-0.008,0,0,0,0,0,0,0,0,0,0,0,0,0,-0.0153,-0.0154,-0.0181,-0.0181,-0.018,-0.0158,-0.0158,-0.0157,-0.0144,-0.0144,-0.0144,-0.0144,-0.0083,-0.0081,-0.0079,0,0,0,0,0,0,0,0,0,0,0,0,0,-0.0152,-0.0155,-0.0181,-0.0171,-0.017,-0.0158,-0.0158,-0.0157,-0.0144,-0.0144,-0.0144,-0.0144,-0.0084,-0.0082,-0.0079,-0.0066,0,0,-0.0072,-0.0071,0,0,0,0,0,0,0,0,-0.0152,-0.0153,-0.0173,-0.0172,-0.017,-0.0154,-0.0125,-0.0125,-0.0144,-0.0154,-0.0144,-0.0144,-0.0103,-0.0099,-0.0095,-0.0063,-0.0061,-0.0072,-0.007,-0.0069,-0.0069,0,0,0,0,0,0,0,-0.0152,-0.0153,-0.0172,-0.0173,-0.0171,-0.0147,-0.0147,-0.0125,-0.0129,-0.0153,-0.0152,-0.0149,-0.0102,-0.0098,-0.0094,-0.006,-0.0072,-0.007,-0.0068,-0.0067,-0.0025,-0.0025,0,0,0,0,0,0,-0.0158,-0.0154,-0.0173,-0.0171,-0.0161,-0.0148,-0.0148,-0.0159,-0.013,-0.0125,-0.0149,-0.0149,-0.0102,-0.0097,-0.0092,-0.0071,-0.0069,-0.0067,-0.0066,-0.0025,-0.0025,-0.0026,0,0,0,0,0,0,-0.0158,-0.0161,-0.0174,-0.0161,-0.0161,-0.0149,-0.0161,-0.0159,-0.0159,-0.0127,-0.0122,-0.0152,-0.0102,-0.0095,-0.0081,-0.0068,-0.0066,-0.0064,-0.0025,-0.0025,-0.0025,-0.0031,0,0,0,0,0,0,-0.0158,-0.0161,-0.0169,-0.0162,-0.0162,-0.0178,-0.0161,-0.0158,-0.0157,-0.0156,-0.0128,-0.0122,-0.0101,-0.0085,-0.0079,-0.0065,-0.0062,-0.0024,-0.0025,-0.0025,-0.0031,-0.0032,-0.0033,0,0,0,0,0,-0.0157,-0.0177,-0.017,-0.0172,-0.0175,-0.0178,-0.0176,-0.0166,-0.0157,-0.0164,-0.0144,-0.0123,-0.0084,-0.0084,-0.0076,-0.0061,-0.0024,-0.0025,-0.0025,-0.003,-0.0032,-0.0033,0,0,0,0,0,0,-0.0158,-0.0177,-0.017,-0.0191,-0.0187,-0.0176,-0.018,-0.0171,-0.0161,-0.0157,-0.0127,-0.012,-0.0103,-0.0088,-0.0088,-0.0054,-0.005,-0.0049,-0.0056,-0.0057,-0.0058,-0.0048,-0.006,0,0,0,0,0,-0.0164,-0.0193,-0.0189,-0.0204,-0.0204,-0.0191,-0.0189,-0.0184,-0.0173,-0.0169,-0.0149,-0.0125,-0.01,-0.0085,-0.0068,-0.0047,-0.0009,-0.0035,-0.0036,-0.0037,-0.0025,0.006,0.0069,-0.0028,-0.0028,-0.0028,0,0,-0.0163,-0.0181,-0.0192,-0.0207,-0.0201,-0.0211,-0.019,-0.0195,-0.0195,-0.0162,-0.0158,-0.0131,-0.0098,-0.0077,-0.0067,-0.0061,0.0002,-0.0037,-0.0038,-0.0026,0.0061,0.0071,0.0079,-0.0028,-0.0028,-0.0028,0,0,-0.0193,-0.0195,-0.0233,-0.0236,-0.024,-0.0228,-0.0232,-0.0225,-0.0213,-0.0207,-0.0177,-0.0141,-0.0121,-0.008,-0.0058,-0.0055,-0.001,-0.0056,-0.0043,0.0039,0.0049,0.0058,0.0087,0.0098,-0.0051,-0.0051,-0.0051,0,-0.0196,-0.0241,-0.0238,-0.027,-0.0269,-0.024,-0.0259,-0.0244,-0.0232,-0.0212,-0.0212,-0.014,-0.0116,-0.0055,-0.0055,-0.0053,-0.0016,-0.0038,0.0041,0.0051,0.0061,0.0088,0.0102,-0.0051,-0.0051,-0.0051,-0.0051,0,-0.0251,-0.0283,-0.0301,-0.0333,-0.0324,-0.0339,-0.0311,-0.0298,-0.0275,-0.0252,-0.0198,-0.015,-0.0099,-0.0086,-0.0069,0.0011,0.0008,0.0028,0.0051,0.0071,0.0097,0.0111,-0.0052,-0.0052,-0.0052,-0.0051,0,0,-0.0286,-0.0336,-0.0346,-0.0365,-0.036,-0.0362,-0.0342,-0.0315,-0.0285,-0.0254,-0.0201,-0.0149,-0.0102,-0.0073,-0.0029,0.0044,0.0127,0.0064,0.0068,0.0102,0.028,0.023,0.024,0.0173,0.0176,0.0178,0.026,0,-0.0336,-0.0421,-0.0412,-0.0451,-0.0483,-0.0428,-0.0408,-0.0367,-0.0314,-0.0254,-0.0173,-0.0115,-0.0102,-0.0056,0.0018,0.0105,0.0169,0.0101,0.0247,0.0251,0.0214,0.0257,0.0248,0.0318,0.0274,0.0277,0.0278,0,-0.0396,-0.0451,-0.0511,-0.0519,-0.0519,-0.052,-0.0454,-0.0427,-0.0322,-0.0268,-0.0176,-0.0111,-0.0003,0.0016,0.0176,0.0134,0.0205,0.0268,0.0274,0.0246,0.0229,0.0297,0.0345,0.0302,0.03,0.0298,0.0297,0,-0.0447,-0.0509,-0.056,-0.0568,-0.0569,-0.0556,-0.0532,-0.0441,-0.0406,-0.0259,-0.0214,-0.0072,-0.0003,0.0125,0.0215,0.0221,0.0381,0.0408,0.0426,0.0421,0.0451,0.0444,0.0538,0.0537,0.0537,0.0537,0.0537,0,-0.0511,-0.0553,-0.0594,-0.0628,-0.0652,-0.0612,-0.0585,-0.052,-0.0422,-0.0371,-0.0227,-0.0163,0.0035,0.013,0.0232,0.0346,0.0392,0.044,0.0457,0.044,0.0431,0.0451,0.044,0.054,0.0539,0.0539,0.0538,0,-0.0559,-0.0592,-0.0652,-0.0681,-0.0684,-0.0695,-0.0656,-0.0622,-0.0519,-0.0437,-0.0393,-0.0224,-0.008,0.0066,0.0272,0.0346,0.0476,0.05,0.0431,0.0438,0.046,0.0448,0.0573,0.0572,0.0572,0.0571,0.0571,0,-0.0593,-0.0638,-0.0701,-0.0727,-0.0744,-0.0754,-0.0744,-0.0671,-0.0627,-0.0493,-0.0457,-0.0306,-0.0184,0.0061,0.0245,0.0426,0.0437,0.0503,0.0528,0.047,0.0473,0.0461,0.045,0.0555,0.0555,0.0554,0.0554,0,-0.065,-0.0668,-0.0718,-0.0784,-0.0806,-0.0821,-0.0809,-0.0801,-0.0691,-0.0625,-0.0515,-0.0413,-0.0171,0.0049,0.0263,0.0366,0.0481,0.0498,0.0506,0.0525,0.0454,0.0456,0.0446,0.055,0.0551,0.0551,0.0551,0.0551,-0.067,-0.0717,-0.0773,-0.0823,-0.0853,-0.0864,-0.0866,-0.0834,-0.0784,-0.0654,-0.0569,-0.0381,-0.0177,0.0157,0.0293,0.0439,0.0459,0.0526,0.0528,0.053,0.0491,0.0422,0.0502,0.0502,0.0502,0.0502,0.0502,0,-0.0689,-0.0741,-0.0799,-0.0856,-0.0882,-0.0889,-0.0881,-0.0853,-0.0798,-0.0663,-0.0538,-0.0297,-0.006,0.0134,0.0368,0.0496,0.0516,0.0509,0.0527,0.0529,0.0532,0.0494,0.0505,0.0505,0.0505,0.0506,0,0,-0.0699,-0.0762,-0.0798,-0.0856,-0.0888,-0.0902,-0.0896,-0.0849,-0.0753,-0.0619,-0.0468,-0.0267,-0.0031,0.0132,0.029,0.0406,0.0433,0.0413,0.04,0.0405,0.0406,0.0533,0.0475,0,0,0,0,0]}],[{"header":{"parameterUnit":"m.s-1","parameterCategory":2,"la1":30.2991,"la2":30.254,"lo1":-89.0895,"lo2":-89.0444,"dy":0.0017,"dx":0.0017,"nx":28,"ny":28,"refTime":"2025-08-28T21:00:00:Z","depth":"4","parameterNumber":2,"parameterNumberName":"U-component_of_CURRENTS"},"data":[0,0,0,0,0,0,0,0,0,0,0,0,0,0,0,0,0,0,0,0,0,0,0,0,0,0,0,0,0,0,0,0,0,0,0,0,0,0,0,0,0,0,0,0,0,0,0,0,0,0,0,0,0,0,0,0,0,0,-0.0976,-0.0977,0,-0.1049,-0.105,-0.1051,-0.1083,-0.1083,-0.1083,-0.1083,-0.1153,-0.1155,-0.1157,0,0,0,0,0,0,0,0,0,0,0,0,0,-0.0877,-0.0879,-0.0976,-0.0977,-0.0978,-0.1049,-0.105,-0.1051,-0.1083,-0.1083,-0.1083,-0.1083,-0.1153,-0.1155,-0.1157,0,0,0,0,0,0,0,0,0,0,0,0,0,-0.0931,-0.0879,-0.0976,-0.1003,-0.1006,-0.1049,-0.105,-0.1051,-0.1083,-0.1083,-0.1083,-0.1083,-0.1152,-0.1155,-0.1157,-0.1176,0,0,-0.1166,-0.1167,0,0,0,0,0,0,0,0,-0.0928,-0.0935,-0.0998,-0.1001,-0.1005,-0.1058,-0.1041,-0.1093,-0.1083,-0.1053,-0.1083,-0.1083,-0.1121,-0.1127,-0.114,-0.1179,-0.1182,-0.1166,-0.1168,-0.1169,-0.117,0,0,0,0,0,0,0,-0.0924,-0.0932,-0.1004,-0.0999,-0.1004,-0.1016,-0.1023,-0.1051,-0.1086,-0.1056,-0.1059,-0.1068,-0.1123,-0.1137,-0.1142,-0.1183,-0.1166,-0.1169,-0.1171,-0.1172,-0.1293,-0.1294,0,0,0,0,0,0,-0.0916,-0.0929,-0.1002,-0.1007,-0.0966,-0.1018,-0.1026,-0.104,-0.1086,-0.1093,-0.1068,-0.1069,-0.1132,-0.1138,-0.1144,-0.1231,-0.1169,-0.1172,-0.1174,-0.1291,-0.1293,-0.1295,0,0,0,0,0,0,-0.0914,-0.0923,-0.0999,-0.0969,-0.098,-0.102,-0.1035,-0.1042,-0.1072,-0.1095,-0.1102,-0.1093,-0.1132,-0.114,-0.1188,-0.1232,-0.1173,-0.1176,-0.1289,-0.1292,-0.1294,-0.1365,0,0,0,0,0,0,-0.0911,-0.0921,-0.0941,-0.0969,-0.0981,-0.1038,-0.1036,-0.1043,-0.1077,-0.108,-0.1119,-0.1125,-0.1133,-0.1184,-0.1191,-0.1234,-0.1178,-0.1287,-0.129,-0.1293,-0.1361,-0.137,-0.1377,0,0,0,0,0,-0.0907,-0.0928,-0.0942,-0.0951,-0.1003,-0.1039,-0.1047,-0.1073,-0.1078,-0.1099,-0.1126,-0.1124,-0.1206,-0.1187,-0.1195,-0.1241,-0.1286,-0.129,-0.1293,-0.1357,-0.1368,-0.1377,0,0,0,0,0,0,-0.0904,-0.0935,-0.095,-0.0982,-0.1016,-0.1045,-0.1068,-0.1084,-0.1123,-0.113,-0.1145,-0.1153,-0.121,-0.1213,-0.1192,-0.1282,-0.1246,-0.1251,-0.1292,-0.1302,-0.131,-0.1271,-0.1181,0,0,0,0,0,-0.0911,-0.0927,-0.0966,-0.0992,-0.1011,-0.1044,-0.1065,-0.1086,-0.1117,-0.1134,-0.1162,-0.1193,-0.1228,-0.1254,-0.128,-0.1333,-0.1302,-0.1365,-0.1374,-0.138,-0.1354,-0.1371,-0.1378,-0.1306,-0.1306,-0.1305,0,0,-0.0919,-0.0935,-0.0949,-0.0992,-0.1019,-0.1052,-0.1057,-0.1097,-0.1126,-0.1136,-0.1191,-0.1222,-0.1247,-0.1306,-0.1332,-0.1317,-0.1383,-0.1385,-0.1391,-0.1359,-0.1375,-0.1382,-0.1388,-0.1308,-0.1307,-0.1307,0,0,-0.0929,-0.0958,-0.0976,-0.1006,-0.105,-0.107,-0.1085,-0.1131,-0.1157,-0.1209,-0.1229,-0.1285,-0.1332,-0.137,-0.139,-0.1456,-0.1422,-0.1471,-0.1489,-0.1509,-0.1514,-0.1518,-0.1478,-0.1478,-0.148,-0.1481,-0.1481,0,-0.094,-0.0969,-0.099,-0.1018,-0.1043,-0.1078,-0.1111,-0.1144,-0.1201,-0.1225,-0.1231,-0.1323,-0.1359,-0.1429,-0.1455,-0.1476,-0.145,-0.1455,-0.1518,-0.1522,-0.1525,-0.1482,-0.1481,-0.1484,-0.1484,-0.1484,-0.1483,0,-0.0964,-0.0997,-0.1012,-0.1053,-0.1082,-0.1119,-0.1161,-0.1203,-0.1234,-0.1263,-0.1337,-0.139,-0.1448,-0.1478,-0.1486,-0.1545,-0.1505,-0.1523,-0.1491,-0.1536,-0.1488,-0.1486,-0.149,-0.1489,-0.1487,-0.1486,0,0,-0.0967,-0.1019,-0.1029,-0.1057,-0.1107,-0.1137,-0.1182,-0.1235,-0.1261,-0.1331,-0.1362,-0.146,-0.1496,-0.1518,-0.1561,-0.1571,-0.159,-0.1555,-0.1554,-0.1506,-0.1579,-0.1524,-0.1516,-0.1621,-0.1621,-0.1622,-0.1531,0,-0.0987,-0.1035,-0.1056,-0.1114,-0.1145,-0.1185,-0.1222,-0.1272,-0.13,-0.1339,-0.1408,-0.1458,-0.1512,-0.1549,-0.1583,-0.1583,-0.1589,-0.1608,-0.1546,-0.1542,-0.1484,-0.1514,-0.1623,-0.153,-0.1529,-0.1529,-0.1528,0,-0.1007,-0.1036,-0.1086,-0.1145,-0.1164,-0.1204,-0.1257,-0.1298,-0.1347,-0.137,-0.1435,-0.1464,-0.1534,-0.1551,-0.1592,-0.16,-0.1593,-0.1575,-0.1573,-0.1486,-0.1484,-0.1477,-0.1524,-0.1524,-0.1525,-0.1525,-0.1525,0,-0.099,-0.1061,-0.1098,-0.1122,-0.1189,-0.1227,-0.1272,-0.1316,-0.1339,-0.1389,-0.1397,-0.1477,-0.1524,-0.1537,-0.1571,-0.1568,-0.1558,-0.1561,-0.1493,-0.1487,-0.1529,-0.1525,-0.1559,-0.156,-0.156,-0.156,-0.156,0,-0.099,-0.1028,-0.1105,-0.1129,-0.1177,-0.1236,-0.1273,-0.1319,-0.1361,-0.1392,-0.1436,-0.1466,-0.1522,-0.1541,-0.1544,-0.1524,-0.1567,-0.1474,-0.1468,-0.156,-0.1561,-0.1526,-0.1524,-0.1557,-0.1557,-0.1558,-0.1559,0,-0.0956,-0.1004,-0.1056,-0.1142,-0.1166,-0.1209,-0.1272,-0.1292,-0.1348,-0.138,-0.1401,-0.1458,-0.1486,-0.151,-0.1513,-0.1495,-0.1468,-0.1452,-0.1515,-0.1517,-0.1366,-0.1368,-0.1311,-0.1308,-0.1306,-0.1304,-0.1303,0,-0.0941,-0.0963,-0.1051,-0.1076,-0.1118,-0.1178,-0.1203,-0.1275,-0.1298,-0.1385,-0.1401,-0.1436,-0.1475,-0.1411,-0.1457,-0.1418,-0.1428,-0.1375,-0.1383,-0.1343,-0.1344,-0.135,-0.1355,-0.1299,-0.1299,-0.1298,-0.1298,0,-0.0902,-0.094,-0.0972,-0.1031,-0.1072,-0.111,-0.1175,-0.1177,-0.1275,-0.1321,-0.1361,-0.1357,-0.1374,-0.1371,-0.1359,-0.1349,-0.1381,-0.1352,-0.1355,-0.1362,-0.1329,-0.1333,-0.134,-0.129,-0.1291,-0.1292,-0.1292,0,-0.0863,-0.0875,-0.0926,-0.0969,-0.1024,-0.1063,-0.1088,-0.1136,-0.1164,-0.1271,-0.1291,-0.1337,-0.1389,-0.1336,-0.1342,-0.1311,-0.1276,-0.1221,-0.123,-0.1239,-0.1263,-0.1213,-0.1119,0,0,0,0,0,-0.0818,-0.0821,-0.0862,-0.0904,-0.0968,-0.1001,-0.108,-0.1112,-0.1192,-0.1193,-0.1242,-0.1263,-0.1252,-0.1268,-0.1215,-0.1291,-0.1275,-0.1223,-0.1216,-0.1249,-0.1258,-0.1297,0,0,0,0,0,0,-0.078,-0.0806,-0.0831,-0.0857,-0.0875,-0.093,-0.0978,-0.1031,-0.1039,-0.1125,-0.112,-0.1179,-0.1177,-0.1262,-0.1186,-0.119,-0.1159,-0.125,-0.1247,-0.1244,-0.1252,-0.1259,-0.1302,0,0,0,0,0]},{"header":{"parameterUnit":"m.s-1","parameterCategory":2,"la1":30.2991,"la2":30.254,"lo1":-89.0895,"lo2":-89.0444,"dy":0.0017,"dx":0.0017,"nx":28,"ny":28,"refTime":"2025-08-28T21:00:00:Z","depth":"4","parameterNumber":3,"parameterNumberName":"V-component_of_CURRENTS"},"data":[0,0,0,0,0,0,0,0,0,0,0,0,0,0,0,0,0,0,0,0,0,0,0,0,0,0,0,0,0,0,0,0,0,0,0,0,0,0,0,0,0,0,0,0,0,0,0,0,0,0,0,0,0,0,0,0,0,0,-0.0246,-0.0246,0,-0.023,-0.0229,-0.0229,-0.0202,-0.0201,-0.02,-0.02,-0.0158,-0.0157,-0.0157,0,0,0,0,0,0,0,0,0,0,0,0,0,-0.0246,-0.0246,-0.0246,-0.0246,-0.0245,-0.023,-0.0229,-0.0229,-0.0202,-0.0201,-0.02,-0.0199,-0.0158,-0.0157,-0.0157,0,0,0,0,0,0,0,0,0,0,0,0,0,-0.024,-0.0246,-0.0246,-0.0229,-0.0227,-0.023,-0.0229,-0.0229,-0.0202,-0.0201,-0.02,-0.0199,-0.0158,-0.0157,-0.0157,-0.0171,0,0,-0.0154,-0.0154,0,0,0,0,0,0,0,0,-0.0241,-0.0241,-0.0232,-0.023,-0.0228,-0.0216,-0.0214,-0.0208,-0.0202,-0.0213,-0.02,-0.0199,-0.0175,-0.0172,-0.0174,-0.0169,-0.0167,-0.0154,-0.0154,-0.0153,-0.0153,0,0,0,0,0,0,0,-0.0241,-0.0241,-0.0241,-0.0231,-0.0229,-0.0219,-0.0218,-0.0213,-0.02,-0.0212,-0.0209,-0.0206,-0.0173,-0.0174,-0.0172,-0.0166,-0.0154,-0.0153,-0.0153,-0.0153,-0.0171,-0.0171,0,0,0,0,0,0,-0.0242,-0.0242,-0.0241,-0.024,-0.0231,-0.022,-0.0218,-0.0221,-0.02,-0.0196,-0.0207,-0.0205,-0.0176,-0.0173,-0.0171,-0.0192,-0.0153,-0.0153,-0.0152,-0.017,-0.0171,-0.0172,0,0,0,0,0,0,-0.0243,-0.0243,-0.0242,-0.0239,-0.0238,-0.0221,-0.0225,-0.0222,-0.022,-0.0196,-0.0192,-0.0207,-0.0175,-0.0172,-0.0171,-0.019,-0.0152,-0.0151,-0.0169,-0.017,-0.0171,-0.0231,0,0,0,0,0,0,-0.0243,-0.0243,-0.0249,-0.0239,-0.0238,-0.025,-0.0225,-0.0222,-0.0218,-0.0216,-0.0196,-0.0191,-0.0174,-0.0172,-0.017,-0.0188,-0.0151,-0.0167,-0.0169,-0.0171,-0.0228,-0.0234,-0.024,0,0,0,0,0,-0.0243,-0.0256,-0.0249,-0.0249,-0.0245,-0.0251,-0.025,-0.0235,-0.022,-0.0228,-0.0212,-0.0191,-0.0182,-0.0173,-0.017,-0.0188,-0.0166,-0.0169,-0.0171,-0.0225,-0.0233,-0.024,0,0,0,0,0,0,-0.0257,-0.0254,-0.0246,-0.0257,-0.0256,-0.0246,-0.025,-0.0239,-0.0234,-0.0229,-0.0203,-0.0199,-0.0206,-0.019,-0.018,-0.0199,-0.0171,-0.0173,-0.0213,-0.0221,-0.0227,-0.0243,-0.015,0,0,0,0,0,-0.0263,-0.0276,-0.0267,-0.0278,-0.0276,-0.0264,-0.0264,-0.0255,-0.0247,-0.0244,-0.0231,-0.0218,-0.0215,-0.0211,-0.0206,-0.0216,-0.019,-0.0226,-0.0232,-0.0237,-0.0249,-0.025,-0.0258,-0.0179,-0.0179,-0.0179,0,0,-0.0272,-0.0272,-0.0279,-0.0282,-0.0278,-0.0291,-0.0262,-0.0266,-0.0282,-0.024,-0.0257,-0.024,-0.0223,-0.0236,-0.0237,-0.0222,-0.0236,-0.024,-0.0244,-0.0253,-0.0253,-0.0261,-0.0268,-0.018,-0.018,-0.018,0,0,-0.0298,-0.0295,-0.0313,-0.0318,-0.0316,-0.0311,-0.0314,-0.0308,-0.0309,-0.0321,-0.0297,-0.0294,-0.0287,-0.0284,-0.0279,-0.0316,-0.027,-0.0309,-0.0351,-0.0352,-0.0359,-0.0365,-0.0299,-0.0299,-0.031,-0.031,-0.031,0,-0.0307,-0.0329,-0.0319,-0.0338,-0.0347,-0.0324,-0.0346,-0.0349,-0.0346,-0.0351,-0.0334,-0.0332,-0.0315,-0.0332,-0.0344,-0.0331,-0.03,-0.0324,-0.0361,-0.0366,-0.0371,-0.0303,-0.0302,-0.0313,-0.0313,-0.0312,-0.0312,0,-0.0345,-0.0364,-0.0376,-0.0394,-0.0403,-0.0419,-0.0419,-0.0431,-0.0423,-0.0419,-0.0433,-0.0414,-0.0409,-0.0405,-0.0386,-0.0412,-0.0365,-0.0369,-0.0343,-0.0382,-0.0307,-0.0305,-0.0318,-0.0317,-0.0316,-0.0315,0,0,-0.0355,-0.0396,-0.0399,-0.0421,-0.0435,-0.0447,-0.0477,-0.0494,-0.0511,-0.0507,-0.0524,-0.0524,-0.05,-0.0494,-0.0468,-0.0472,-0.0462,-0.0437,-0.0436,-0.0372,-0.0414,-0.0322,-0.0309,-0.0475,-0.0476,-0.0476,-0.0332,0,-0.0386,-0.0439,-0.0448,-0.0497,-0.0522,-0.0523,-0.0553,-0.0566,-0.0568,-0.0578,-0.056,-0.0566,-0.0537,-0.0532,-0.0532,-0.0479,-0.0465,-0.0497,-0.0386,-0.0382,-0.0297,-0.0308,-0.048,-0.033,-0.033,-0.0329,-0.0329,0,-0.0411,-0.0448,-0.0507,-0.0554,-0.0563,-0.059,-0.0628,-0.0651,-0.0658,-0.0654,-0.0652,-0.0632,-0.0617,-0.06,-0.0532,-0.055,-0.0493,-0.0453,-0.0447,-0.0345,-0.0287,-0.0293,-0.0324,-0.0324,-0.0325,-0.0325,-0.0325,0,-0.0423,-0.0481,-0.0535,-0.0553,-0.0605,-0.0632,-0.0651,-0.0673,-0.0683,-0.07,-0.0687,-0.068,-0.0637,-0.061,-0.0492,-0.0526,-0.0393,-0.0428,-0.0287,-0.0276,-0.0375,-0.0371,-0.0404,-0.0404,-0.0405,-0.0405,-0.0406,0,-0.0448,-0.0486,-0.0548,-0.058,-0.0633,-0.0656,-0.0699,-0.0717,-0.0723,-0.0712,-0.0718,-0.0682,-0.0643,-0.0551,-0.0492,-0.0337,-0.0381,-0.0288,-0.0248,-0.0395,-0.0396,-0.037,-0.0368,-0.04,-0.0401,-0.0402,-0.0403,0,-0.045,-0.0493,-0.0555,-0.0624,-0.0645,-0.068,-0.0711,-0.0732,-0.0734,-0.0717,-0.0717,-0.0657,-0.0537,-0.0451,-0.0351,-0.0292,-0.0194,-0.0131,-0.0224,-0.0191,-0.008,-0.0083,0.0,0.0004,0.0008,0.0011,0.0013,0,-0.0454,-0.0493,-0.0582,-0.0616,-0.0648,-0.0696,-0.0721,-0.0738,-0.0739,-0.068,-0.0655,-0.0545,-0.0488,-0.0242,-0.0184,-0.004,-0.0036,0.0023,-0.0117,-0.0077,-0.0046,-0.0054,-0.0061,0.0019,0.0019,0.002,0.0021,0,-0.0463,-0.05,-0.0553,-0.0629,-0.067,-0.0707,-0.0732,-0.0721,-0.0709,-0.0704,-0.0576,-0.0475,-0.0306,-0.0189,-0.0038,0.0041,-0.0029,0.0058,0.0049,-0.0083,-0.0053,-0.0028,-0.0039,0.0033,0.0032,0.0031,0.003,0,-0.0458,-0.0495,-0.057,-0.0631,-0.0684,-0.0703,-0.0715,-0.0683,-0.067,-0.0597,-0.0536,-0.0393,-0.0313,-0.0139,-0.0012,0.0095,0.0066,0.0045,0.0035,0.0023,-0.0031,0.0006,0.015,0,0,0,0,0,-0.0447,-0.0496,-0.0561,-0.0631,-0.0681,-0.0708,-0.0718,-0.0717,-0.0686,-0.0588,-0.0561,-0.0408,-0.0204,-0.0122,-0.0002,0.0008,0.0064,0.0149,0.0029,0.0101,0.0087,0.0025,0,0,0,0,0,0,-0.0444,-0.0506,-0.0559,-0.062,-0.0658,-0.0702,-0.0704,-0.068,-0.0622,-0.0571,-0.0459,-0.0395,-0.0201,-0.0269,-0.0003,0.0029,-0.0035,0.0242,0.0244,0.0109,0.0096,0.0085,0.0017,0,0,0,0,0]}]]